Regional Weather Roundup
Issued by NWS

Home | Current Version | Previous Version | Text Only | Print | Product List | Glossary Off
Versions: 1 2 3 4 5 6 7 8 9 10 11 12 13 14 15 16 17 18 19 20 21 22 23 24 25 26 27 28 29 30 31 32 33 34 35 36 37 38 39 40 41 42 43 44 45 46 47 48 49 50

000
ASUS43 KLMK 010110
RWRKY
KENTUCKY REGIONAL WEATHER ROUNDUP
NATIONAL WEATHER SERVICE LOUISVILLE KY
900 PM EDT FRI SEP 30 2016

NOTE "FAIR" INDICATES FEW OR NO CLOUDS BELOW 12,000 FEET
WITH NO SIGNIFICANT WEATHER AND/OR OBSTRUCTIONS TO VISIBILITY.

KYZ001>023-026-027-061>063-070>075-010200-
WESTERN AND SOUTH CENTRAL KENTUCKY

CITY           SKY/WX    TMP DP  RH WIND       PRES   REMARKS
PADUCAH        CLOUDY    62  59  90 W6        30.02S
HENDERSON      CLOUDY    63  57  82 CALM      29.99S
OWENSBORO      MOCLDY   N/A N/A N/A S5        30.01R
HOPKINSVILLE   LGT RAIN  61  59  94 CALM      30.03R
BOWLING GREEN  CLOUDY    60  56  86 SW6       30.03R
GLASGOW        PTCLDY    56  56 100 S3        30.03R
$$

KYZ024-025-028>034-038-045-046-053-010200-
NORTH CENTRAL KENTUCKY

CITY           SKY/WX    TMP DP  RH WIND       PRES   REMARKS
LOUISVILLE/SDF MOCLDY    58  54  86 SE3       30.02R
LOUISVILLE/LOU MOCLDY    58  54  86 SE3       30.02S
FORT KNOX      PTCLDY    54  54 100 NE2       30.00S FOG
$$

KYZ035>037-039>044-047>052-055>060-089>105-010200-
NORTHEAST KENTUCKY

CITY           SKY/WX    TMP DP  RH WIND       PRES   REMARKS
LEXINGTON      PTCLDY    56  51  84 SE3       30.04R
COVINGTON      CLOUDY    58  53  84 S3        30.02R
FRANKFORT      CLOUDY    58  52  80 CALM      30.02R
$$

KYZ054-064>069-076>088-106>120-010200-
SOUTHEAST KENTUCKY

CITY           SKY/WX    TMP DP  RH WIND       PRES   REMARKS
JACKSON        CLEAR     58  47  66 CALM      30.05S
LONDON         CLOUDY    59  50  72 W5        30.06R
SOMERSET       MOCLDY    55  50  82 CALM      30.06S
MIDDLESBORO    CLEAR     56  52  88 CALM      30.07R
MONTICELLO     CLEAR     56  53  90 W10       30.06S
$$




USA.gov is the U.S. government's official web portal to all federal, state and local government web resources and services.